Regional Weather Roundup
Issued by NWS

Home | Current Version | Previous Version | Text Only | Print | Product List | Glossary On
Versions: 1 2 3 4 5 6 7 8 9 10 11 12 13 14 15 16 17 18 19 20 21 22 23 24 25 26 27 28 29 30 31 32 33 34 35 36 37 38 39 40 41 42 43 44 45 46 47 48 49 50
000
ASUS45 KTFX 242010
RWRMT
MONTANA REGIONAL WEATHER ROUNDUP
NATIONAL WEATHER SERVICE GREAT FALLS MT
200 PM MDT WED MAY 24 2017

NOTE: "FAIR" INDICATES FEW OR NO CLOUDS BELOW 12000 FEET WITH NO
SIGNIFICANT WEATHER AND/OR OBSTRUCTIONS TO VISIBILITY.

MTZ001>007-043-242100-
WEST OF THE DIVIDE

CITY           SKY/WX    TMP DP  RH WIND       PRES   REMARKS
KALISPELL      PTSUNNY   55  20  25 W23G38    29.56S
MISSOULA       SUNNY     62  22  21 W22G31    29.63F
BUTTE          SUNNY     59  10  14 W28G41    29.60F
MULLAN PASS    PTSUNNY   41  22  46 VRB7      29.71F
ANACONDA         N/A     57  10  15 W25G35    29.60F
DEER LODGE       N/A     57  16  19 W9G25     29.61F
EUREKA           N/A     54  21  28 W12G21    29.56S
HAMILTON         N/A     57  18  21 W18G31    29.68S
PLAINS           N/A     58  26  29 SW23      29.69F
RONAN            N/A     58  21  24 W21       29.71R
$$

MTZ008-052>055-242100-
SOUTHWEST MONTANA

CITY           SKY/WX    TMP DP  RH WIND       PRES   REMARKS
BOZEMAN        SUNNY     69  25  19 NW30G47   29.45F
DILLON         SUNNY     68  26  20 W20       29.52F
W YELLOWSTONE  SUNNY     68  37  32 SW32      29.56F
ENNIS          SUNNY     68  28  22 NW24      29.55R
THREE FORKS      N/A     69  17  13 W22       29.54S
TWIN BRIDGES     N/A     67  23  19 W17       29.59S
$$

MTZ009-010-012-014-046-048-049-054-242100-
EAST SLOPES AND CENTRAL MONTANA

CITY           SKY/WX    TMP DP  RH WIND       PRES   REMARKS
CUT BANK       MOSUNNY   56  16  20 W44G56    29.36R
GREAT FALLS    MOSUNNY   65  21  18 SW32G45   29.41F
MALMSTROM AFB  MOSUNNY   64  23  21 SW33G45   29.42F
HELENA         SUNNY     66  16  14 W30G44    29.53S
CHOTEAU          N/A     59  16  18 W23G44    29.43S
CONRAD           N/A     60  30  32 SW39      29.47F
$$

MTZ011-013-016-021-045-047-050-051-242100-
NORTH CENTRAL MONTANA

CITY           SKY/WX    TMP DP  RH WIND       PRES   REMARKS
HAVRE          SUNNY     71  11  10 W33G49    29.29F
LEWISTOWN      PTSUNNY   63  20  19 NW28G37   29.40R
N BAR RANCH      N/A     68  28  22 NW21G32   29.41F
CHINOOK          N/A     70  14  11 W26G38    29.27F
FORT BENTON      N/A     64  18  16 CALM      29.36F
$$

MTZ017>020-022>027-061-062-242100-
NORTHEAST MONTANA

CITY           SKY/WX    TMP DP  RH WIND       PRES   REMARKS
GLASGOW        PTSUNNY   78  25  14 W25G39    29.23F
JORDAN           N/A     80  35  19 NW24G36   29.27S
SIDNEY         CLOUDY    78  42  27 S28G35    29.28F
WOLF POINT     CLOUDY    80  46  30 W9        29.24R
MALTA          SUNNY     75  23  14 W37G44    29.23F
PLENTYWOOD       N/A     72  37  28 S30G38    29.27F
SCOBEY           N/A     71  47  42 S12       29.29S
$$

MTZ028>42-056>058-242100-
SOUTHCENTRAL AND SOUTHEAST MONTANA

CITY           SKY/WX    TMP DP  RH WIND       PRES   REMARKS
BAKER          SUNNY     76  42  29 S29G43    29.37F
BILLINGS       PTSUNNY   72  42  34 NW22G32   29.32R
LIVINGSTON     CLOUDY    68  30  24 NW24G31   29.41R
MILES CITY     MOSUNNY   83  46  27 SE17G26   29.23F
BIG TIMBER     SUNNY     72  34  25 W23G37    29.42S
EKALAKA          N/A     74  43  32 SE20      29.43F
FORSYTH          N/A     86  36  16 SW21G29   29.22F
LAUREL           N/A     73  42  32 NW16      29.39R
ROUNDUP          N/A     75  39  27 N9        29.33S
$$

REGIONAL REPORTS...DAKOTAS

CITY           SKY/WX    TMP DP  RH WIND       PRES   REMARKS
WILLISTON      CLOUDY    78  38  23 SE24G32   29.33F
MINOT          SUNNY     71  34  25 SE23G36   29.46F
DICKINSON      SUNNY     70  33  25 S29G40    29.41F
BEACH            N/A     75  39  27 S31G38    29.38F
TIOGA            N/A     70  32  24 S33G44    29.38F
WATFORD CITY     N/A     75  36  23 S24G40    29.34F
BISMARCK       SUNNY     69  41  36 S22G33    29.55F
GRAND FORKS    MOSUNNY   68  41  37 SE18G28   29.66F
FARGO          CLOUDY    64  42  44 S17G25    29.69F
BUFFALO SD       N/A     73  41  31 SE24G33   29.39F
RAPID CITY     SUNNY     73  44  35 SE23G29   29.50F
$$

REGIONAL REPORTS...WYOMING/IDAHO/WASHINGTON

CITY           SKY/WX    TMP DP  RH WIND       PRES   REMARKS
GILLETTE       SUNNY     79  45  29 SW12G20   29.44F
SHERIDAN       MOSUNNY   83  42  23 S5        29.37F
BUFFALO WY     SUNNY     82  37  20 W17G29    29.46F
CODY           SUNNY     80  32  17 NW13G18   29.44F
YELLOWSTONE LA   N/A     60  34  37 W10G25    29.67F
IDAHO FALLS    MOSUNNY   74  30  19 SW43G55   29.60F
SALMON         SUNNY     68  19  15 NW22G32   29.53F
BOISE          SUNNY     71  17  12 NW20G25   29.73F
SPOKANE        MOSUNNY   59  22  24 W15G22    29.75F
$$

REGIONAL REPORTS...ALBERTA

CITY           SKY/WX    TMP DP  RH WIND       PRES   REMARKS
EDMONTON       LGT RAIN  50  50 100 N40G52    29.21R FOG
CALGARY        LGT RAIN  39  36  87 W33G46    29.27R WCI  27
LETHBRIDGE     PTSUNNY   57  23  26 W37G51    29.27S
MEDICINE HAT   PTSUNNY   63  30  29 W26G35    29.22F
WATERTON GATE    N/A     50  19  29 SW36G53     N/A
CARDSTON         N/A     54  18  24 W25G38      N/A
MILK RIVER       N/A     61  19  20 W30G38      N/A
$$

REGIONAL REPORTS...SASKATCHEWAN

CITY           SKY/WX    TMP DP  RH WIND       PRES   REMARKS
REGINA         PTSUNNY   79  39  24 S30G43    29.16F
SASKATOON      PTSUNNY   68  37  32 SE15G24   29.06F
CYPRESS HILLS    N/A     55  18  22 W17G31      N/A
VAL MARIE        N/A     72   7   8 W41G53      N/A
ROCKGLEN         N/A     66  30  26 W30G43      N/A
ASSINIBOIA       N/A     57  50  77 N29G40      N/A
$$



USA.gov is the U.S. government's official web portal to all federal, state and local government web resources and services.